Regional Weather Roundup
Issued by NWS

Home | Current Version | Previous Version | Graphics & Text | Print | Product List | Glossary On
Versions: 1 2 3 4 5 6 7 8 9 10 11 12 13 14 15 16 17 18 19 20 21 22 23 24 25 26 27 28 29 30 31 32 33 34 35 36 37 38 39 40 41 42 43 44 45 46 47 48 49 50
000
ASUS43 KOAX 281210
RWRNE

WEATHER ROUNDUP FOR NEBRASKA
NATIONAL WEATHER SERVICE OMAHA NE
700 AM CDT FRI APR 28 2017

NOTES: SATELLITE DATA IS BEING USED TO AUGMENT CLOUD COVER ABOVE
       12000 FEET.
       "FAIR" INDICATES FEW OR NO CLOUDS BELOW 12,000 FEET WITH NO
       SIGNIFICANT WEATHER AND/OR OBSTRUCTIONS TO VISIBILITY.

  * THESE STATIONS DO NOT REPORT WEATHER SUCH AS RAIN...SNOW OR FOG.

NEZ001>004-019>022-054>056-281300-
NEBRASKA PANHANDLE

CITY           SKY/WX    TMP DP  RH WIND       PRES   REMARKS
SCOTTSBLUFF    LGT SNOW  33  31  92 E10       29.65R FOG     WCI  25
6HR MIN TEMP:  33; 6HR MAX TEMP:  42; 6HR PCP:  0.07;

ALLIANCE       LGT SNOW  33  32  96 E9        29.66R VSB 1   WCI  25
6HR MIN TEMP:  33; 6HR MAX TEMP:  39; 6HR PCP:  0.14;

CHADRON        LGT RAIN  36  34  92 E15       29.71R WCI  27
6HR MIN TEMP:  36; 6HR MAX TEMP:  41; 6HR PCP:  0.49;

KIMBALL        CLOUDY    37  33  87 W7        29.62R WCI  31
SIDNEY         MIX PCPN  33  32  96 E8        29.63R WCI  26
6HR MIN TEMP:  33; 6HR MAX TEMP:  40; 6HR PCP:  0.01;

$$

NEZ057>060-069>072-079>082-281300-
SOUTHWEST NEBRASKA

CITY           SKY/WX    TMP DP  RH WIND       PRES   REMARKS
NORTH PLATTE   RAIN      39  38  96 E10       29.66F WCI  32
6HR MIN TEMP:  38; 6HR MAX TEMP:  44; 6HR PCP:  0.78;

IMPERIAL       LGT RAIN  37  35  92 NE13      29.64R WCI  29
6HR MIN TEMP:  37; 6HR MAX TEMP:  42; 6HR PCP:  0.57;

LEXINGTON      LGT RAIN  42  40  91 NE10G16   29.64S
MCCOOK         LGT RAIN  43  43 100 NE14      29.59S FOG
6HR MIN TEMP:  43; 6HR MAX TEMP:  44; 6HR PCP:  0.47;

OGALLALA       FLURRIES  34  33  97 E6        29.67R WCI  29
$$

NEZ005>010-023>029-035>040-094-281300-
NORTH CENTRAL NEBRASKA

CITY           SKY/WX    TMP DP  RH WIND       PRES   REMARKS
VALENTINE      CLOUDY    39  28  64 E14       29.79R WCI  31
6HR MIN TEMP:  39; 6HR MAX TEMP:  44;

AINSWORTH      LGT SNOW  35  33  92 E12       29.79R WCI  27
BROKEN BOW     RAIN      39  50 100 E14       29.69R WCI  31
6HR MIN TEMP:  39; 6HR MAX TEMP:  45; 6HR PCP:  0.40;

O`NEILL        CLOUDY    36  31  82 E12       29.81R WCI  27
ORD            RAIN      39  35  86 E16       29.73R WCI  30
6HR MIN TEMP:  39; 6HR MAX TEMP:  45; 6HR PCP:  0.15;

THEDFORD       LGT SNOW  34  33  97 E14       29.73S VSB 1   WCI  24
$$

NEZ041-046>049-061>064-073>077-083>087-281300-
SOUTH CENTRAL NEBRASKA

CITY           SKY/WX    TMP DP  RH WIND       PRES   REMARKS
GRAND ISLAND   LGT RAIN  41  41 100 NE17      29.70R FOG
6HR MIN TEMP:  41; 6HR MAX TEMP:  46; 6HR PCP:  0.37;

AURORA         DRIZZLE   42  40  95 NE22      29.69S
HASTINGS       LGT RAIN  45  43  93 E17G25    29.65S FOG
6HR MIN TEMP:  45; 6HR MAX TEMP:  47; 6HR PCP:  0.55;

HEBRON         LGT RAIN  46  46  97 E8        29.64R
HOLDREGE       LGT RAIN  44  42  95 E16       29.62R
KEARNEY *      CLOUDY    45  39  81 NE15      29.65S
YORK           CLOUDY    41  41 100 E17G26    29.70S FOG
$$

NEZ011>018-030>034-042>045-281300-
NORTHEAST NEBRASKA

CITY           SKY/WX    TMP DP  RH WIND       PRES   REMARKS
NORFOLK        CLOUDY    35  28  75 E13G21    29.80R WCI  26
6HR MIN TEMP:  35; 6HR MAX TEMP:  41;

ALBION         LGT RAIN  37  34  87 E10       29.78R WCI  30
BLAIR          RAIN      37  34  89 NE14      29.78S WCI  29
FREMONT        LGT RAIN  37  35  91 NE13G18   29.79S WCI  29
TEKAMAH        LGT RAIN  38  30  73 NE9       29.84R WCI  31
6HR MIN TEMP:  37; 6HR MAX TEMP:  41; 6HR PCP: TRACE;

WAYNE          CLOUDY    34  32  91 E10       29.82S WCI  26
$$

NEZ050>053-065>068-078-088>093-281300-
SOUTHEAST NEBRASKA

CITY           SKY/WX    TMP DP  RH WIND       PRES   REMARKS
LINCOLN        RAIN      43  40  89 NE17      29.73S FOG
6HR MIN TEMP:  43; 6HR MAX TEMP:  51; 6HR PCP:  0.24;

OMAHA EPPLEY   RAIN      39  33  79 NE10      29.80R WCI  32
6HR MIN TEMP:  39; 6HR MAX TEMP:  49; 6HR PCP:  0.06;

BEATRICE       LGT RAIN  46  45  94 E21G30    29.67S
FALLS CITY     RAIN      46  44  93 E17       29.67F FOG
6HR MIN TEMP:  46; 6HR MAX TEMP:  50; 6HR PCP:  0.37;

NEBRASKA CITY  RAIN      42  40  95 NE16      29.73S
PLATTSMOUTH    RAIN      40  36  84 NE14G21   29.76S WCI  33
$$

NEZ044-045-051>053-067-281300-
OMAHA AREA

CITY           SKY/WX    TMP DP  RH WIND       PRES   REMARKS
OMAHA EPPLEY   RAIN      39  33  79 NE10      29.80R WCI  32
6HR MIN TEMP:  39; 6HR MAX TEMP:  49; 6HR PCP:  0.06;

BLAIR          RAIN      37  34  89 NE14      29.78S WCI  29
FREMONT        LGT RAIN  37  35  91 NE13G18   29.79S WCI  29
MILLARD        LGT RAIN  42  38  86 NE3       29.78F
OFFUTT AFB     RAIN      40  37  87 NE14      29.77S WCI  33
PLATTSMOUTH    RAIN      40  36  84 NE14G21   29.76S WCI  33
WAHOO          LGT RAIN  40  36  86 NE15      29.76F WCI  32
$$



USA.gov is the U.S. government's official web portal to all federal, state and local government web resources and services.